History for OINN

Noshahr, Iran

Daily Weekly Monthly
Daily Summary for Monday, March 25, 2019
  Actual: Average: Record:
Temperature
Mean Temperature: 50 °F / 10 °C - :  
Max Temperature: 53 °F / 12 °C - - ()
Min Temperature: 48 °F / 9 °C - - ()
Degree Days
Heating Degree Days: 14    
Moisture
Dew Point 50 °F / 10 °C    
Average Humidity 98    
Maximum Humidity 100    
Minimum Humidity 93    
Precipitation
Precipitation 0.00 in / 0.0 cm - - ()
Sea Level Pressure
Sea Level Pressure 29.95 in / 1014.13 hPa   
Wind
Wind Speed 6 mph / 10 km/h ()  
Max Wind Speed 12 mph / 18 km/h   
Max Gust Speed -   
Visibility 2.4 miles / 3.8 kilometers   
Events Rain   

Key: T is trace of precipitation, MM is missing value
Source: Averaged Metar Reports

Graphs

Observations

History Graphs Observations

Obs Go Here...

Features

Weather Apps

WunderRadio

Weather Underground Apps
Check out our wide variety of mobile and setup applications.

Weather Underground Applications

Top of Page

© Copyright 2019
The Weather Company, LLC
Time(+0430)TemperatureDew PointHumidity Sea Level Pressure Visibility Wind DirectionWind SpeedGust SpeedPrecipitationEvents Conditions
12:30 AM 53.6 °F / 12.0 °C 51.8 °F / 11.0 °C 94% 29.83 in / 1010 hPa 3.1 miles / 5.0 kilometers West 11.5 mph / 18.5 km/h - N/A   Light Drizzle
1:30 AM 51.8 °F / 11.0 °C 51.8 °F / 11.0 °C 100% 29.86 in / 1011 hPa 2.5 miles / 4.0 kilometers WNW 9.2 mph / 14.8 km/h - N/A   Light Drizzle
2:30 AM 51.8 °F / 11.0 °C 51.8 °F / 11.0 °C 100% 29.86 in / 1011 hPa 3.1 miles / 5.0 kilometers WNW 6.9 mph / 11.1 km/h - N/A   Light Drizzle
3:30 AM 51.8 °F / 11.0 °C 51.8 °F / 11.0 °C 100% 29.86 in / 1011 hPa 2.5 miles / 4.0 kilometers West 9.2 mph / 14.8 km/h - N/A   Light Drizzle
4:30 AM 50.0 °F / 10.0 °C 50.0 °F / 10.0 °C 100% 29.89 in / 1012 hPa 3.1 miles / 5.0 kilometers West 6.9 mph / 11.1 km/h - N/A   Light Drizzle
5:30 AM 50.0 °F / 10.0 °C 50.0 °F / 10.0 °C 100% 29.92 in / 1013 hPa 2.5 miles / 4.0 kilometers West 9.2 mph / 14.8 km/h - N/A   Drizzle
6:30 AM 50.0 °F / 10.0 °C 50.0 °F / 10.0 °C 100% 29.92 in / 1013 hPa 3.1 miles / 5.0 kilometers West 9.2 mph / 14.8 km/h - N/A   Drizzle
7:30 AM 50.0 °F / 10.0 °C 50.0 °F / 10.0 °C 100% 29.95 in / 1014 hPa 3.1 miles / 5.0 kilometers West 6.9 mph / 11.1 km/h - N/A   Light Drizzle
8:30 AM 50.0 °F / 10.0 °C 50.0 °F / 10.0 °C 100% 29.95 in / 1014 hPa 1.9 miles / 3.0 kilometers WNW 6.9 mph / 11.1 km/h - N/A   Light Drizzle
9:30 AM 50.0 °F / 10.0 °C 50.0 °F / 10.0 °C 100% 29.98 in / 1015 hPa 1.2 miles / 2.0 kilometers West 6.9 mph / 11.1 km/h - N/A   Light Drizzle
10:30 AM 50.0 °F / 10.0 °C 48.2 °F / 9.0 °C 94% 29.98 in / 1015 hPa 1.9 miles / 3.0 kilometers Calm Calm - N/A   Light Drizzle
11:30 AM 50.0 °F / 10.0 °C 50.0 °F / 10.0 °C 100% 30.01 in / 1016 hPa 1.9 miles / 3.0 kilometers West 4.6 mph / 7.4 km/h - N/A   Light Drizzle
1:30 PM 50.0 °F / 10.0 °C 50.0 °F / 10.0 °C 100% 29.98 in / 1015 hPa 1.2 miles / 2.0 kilometers North 6.9 mph / 11.1 km/h - N/A   Drizzle
2:30 PM 50.0 °F / 10.0 °C 50.0 °F / 10.0 °C 100% 29.95 in / 1014 hPa 1.9 miles / 3.0 kilometers NNW 4.6 mph / 7.4 km/h - N/A   Light Drizzle
3:30 PM 50.0 °F / 10.0 °C 50.0 °F / 10.0 °C 100% 29.98 in / 1015 hPa 1.9 miles / 3.0 kilometers NNW 2.3 mph / 3.7 km/h - N/A   Light Drizzle
4:30 PM 50.0 °F / 10.0 °C 50.0 °F / 10.0 °C 100% 30.01 in / 1016 hPa 1.9 miles / 3.0 kilometers West 2.3 mph / 3.7 km/h - N/A Rain Rain
5:30 PM 50.0 °F / 10.0 °C 48.2 °F / 9.0 °C 94% 29.95 in / 1014 hPa 2.5 miles / 4.0 kilometers ENE 2.3 mph / 3.7 km/h - N/A Rain Light Rain
6:30 PM 50.0 °F / 10.0 °C 48.2 °F / 9.0 °C 94% 29.98 in / 1015 hPa 2.5 miles / 4.0 kilometers Calm Calm - N/A Rain Light Rain
7:30 PM 48.2 °F / 9.0 °C 48.2 °F / 9.0 °C 100% 29.98 in / 1015 hPa 3.1 miles / 5.0 kilometers South 2.3 mph / 3.7 km/h - N/A Rain Light Rain
8:30 PM 48.2 °F / 9.0 °C 48.2 °F / 9.0 °C 100% 29.98 in / 1015 hPa 3.7 miles / 6.0 kilometers WNW 2.3 mph / 3.7 km/h - N/A Rain Light Rain
9:30 PM 48.2 °F / 9.0 °C 46.4 °F / 8.0 °C 93% 30.04 in / 1017 hPa 2.5 miles / 4.0 kilometers West 4.6 mph / 7.4 km/h - N/A Rain Light Rain
10:30 PM 48.2 °F / 9.0 °C 48.2 °F / 9.0 °C 100% 30.04 in / 1017 hPa 1.9 miles / 3.0 kilometers West 9.2 mph / 14.8 km/h - N/A Rain Light Rain
11:30 PM 48.2 °F / 9.0 °C 46.4 °F / 8.0 °C 93% 30.04 in / 1017 hPa 1.9 miles / 3.0 kilometers West 4.6 mph / 7.4 km/h - N/A Rain Light Rain